Location: Hackberry
(29.5783°N, 96.8797°W)
Time: 02:53:59
(UTC+00:00)

Explorer 11/Cluster Stage 4 - Pass Details

Date: 16 November 2024
Orbit: 464 x 1202 km, 28.8° (Epoch: 03 December)

Event Time Altitude Azimuth Distance (km) Brightness Sun altitude
Exits shadow 10:33:13 42° 96° (E) 921 7.3 -30.3°
Drops below altitude 10° 10:36:04 10° 89° (E) 1,910 9.5 -29.7°
Sets 10:38:09 0° 88° (E) 2,723 10.6 -29.3°
